Change the Weather History Date:

Sunday, May 11, 2014

  Actual Average Record
Temperature  
Mean Temperature 71 °F -  
Max Temperature 91 °F 73 °F 91 °F (2014)
Min Temperature 51 °F 47 °F 32 °F (2008)
Cooling Degree Days 6    
Growing Degree Days 21 (Base 50)    
Moisture  
Dew Point 55 °F    
Average Humidity 64    
Maximum Humidity 94    
Minimum Humidity 24    
Precipitation  
Precipitation 0.21 in - - ()
Sea Level Pressure  
Sea Level Pressure 29.58 in    
Wind  
Wind Speed 18 mph (SSE)    
Max Wind Speed 33 mph    
Max Gust Speed 41 mph    
Visibility 10 miles    
Events Thunderstorm    
Averages and records for this station are not official NWS values.
T = Trace of Precipitation, MM = Missing Value Source: NWS Daily Summary

Daily Weather History Graph

Daily Weather History Graph

Search for Another Location

Airport or City:

Trip Planner

Search our weather history database for the weather conditions in past years. The results will help you decide how hot, cold, wet, or windy it might be!

Date:

Astronomy

May. 11, 2014 Rise Set
Actual Time 6:28 AM CDT 8:39 PM CDT
Civil Twilight 5:58 AM CDT 9:08 PM CDT
Nautical Twilight 5:22 AM CDT 9:45 PM CDT
Astronomical Twilight 4:43 AM CDT 10:24 PM CDT
Moon 5:38 PM CDT (5/11) 4:32 AM CDT (5/11)
Length of Visible Light 15h 09m
Length of Day
14h 10m
Waxing Gibbous, 89% of the Moon is Illuminated
May 11
Waxing Gibbous
May 14
Full
May 21
Last Quarter
May 28
New
Jun 5
First Quarter

Hourly Weather History & Observations

Time (CDT) Temp. Heat Index Dew Point Humidity Pressure Visibility Wind Dir Wind Speed Gust Speed Precip Events Conditions
12:15 AM 66.2 °F - 46.4 °F 49% 29.66 in 10.0 mi East 15.0 mph - N/A   Scattered Clouds
12:35 AM 66.2 °F - 48.2 °F 52% 29.66 in 10.0 mi ESE 13.8 mph - N/A   Mostly Cloudy
12:55 AM 66.2 °F - 51.8 °F 60% 29.65 in 10.0 mi ESE 13.8 mph - N/A   Partly Cloudy
1:15 AM 66.2 °F - 53.6 °F 64% 29.65 in 10.0 mi SE 18.4 mph 23.0 mph N/A   Clear
1:35 AM 66.2 °F - 53.6 °F 64% 29.65 in 10.0 mi ESE 17.3 mph 20.7 mph N/A   Clear
1:55 AM 66.2 °F - 55.4 °F 68% 29.64 in 10.0 mi ESE 15.0 mph - N/A   Clear
2:15 AM 66.2 °F - 55.4 °F 68% 29.63 in 10.0 mi East 16.1 mph - N/A   Clear
2:35 AM 66.2 °F - 57.2 °F 73% 29.62 in 10.0 mi East 13.8 mph - N/A   Clear
2:55 AM 66.2 °F - 57.2 °F 73% 29.61 in 10.0 mi East 15.0 mph 19.6 mph N/A   Clear
3:15 AM 64.4 °F - 57.2 °F 77% 29.60 in 10.0 mi East 15.0 mph - N/A   Clear
3:35 AM 64.4 °F - 57.2 °F 77% 29.59 in 10.0 mi ESE 13.8 mph - N/A   Mostly Cloudy
3:55 AM 66.2 °F - 59.0 °F 78% 29.58 in 10.0 mi ESE 16.1 mph - N/A   Overcast
4:15 AM 66.2 °F - 59.0 °F 78% 29.58 in 10.0 mi SE 15.0 mph - N/A   Overcast
4:35 AM 66.2 °F - 60.8 °F 83% 29.56 in 10.0 mi SSE 20.7 mph 26.5 mph N/A   Overcast
4:55 AM 68.0 °F - 60.8 °F 78% 29.55 in 10.0 mi SSE 20.7 mph 26.5 mph N/A   Overcast
5:15 AM 66.2 °F - 60.8 °F 83% 29.55 in 10.0 mi SSE 15.0 mph 26.5 mph N/A   Overcast
5:35 AM 66.2 °F - 60.8 °F 83% 29.55 in 10.0 mi SSE 16.1 mph 19.6 mph N/A   Overcast
5:55 AM 66.2 °F - 60.8 °F 83% 29.55 in 10.0 mi South 13.8 mph - N/A   Scattered Clouds
6:15 AM 66.2 °F - 60.8 °F 83% 29.55 in 10.0 mi SSE 16.1 mph - N/A   Partly Cloudy
6:35 AM 66.2 °F - 60.8 °F 83% 29.54 in 9.0 mi SSE 16.1 mph - N/A   Clear
6:55 AM 66.2 °F - 60.8 °F 83% 29.54 in 9.0 mi SSE 18.4 mph - N/A   Clear
7:15 AM 66.2 °F - 60.8 °F 83% 29.55 in 9.0 mi SSE 16.1 mph - N/A   Partly Cloudy
7:35 AM 66.2 °F - 60.8 °F 83% 29.55 in 10.0 mi SSE 15.0 mph 19.6 mph N/A   Clear
7:55 AM 68.0 °F - 62.6 °F 83% 29.56 in 10.0 mi SSE 16.1 mph 19.6 mph N/A   Clear
8:15 AM 69.8 °F - 62.6 °F 78% 29.57 in 10.0 mi SSE 10.4 mph 18.4 mph N/A   Clear
8:35 AM 71.6 °F - 62.6 °F 73% 29.57 in 10.0 mi SSE 11.5 mph 17.3 mph N/A   Clear
8:55 AM 73.4 °F - 60.8 °F 65% 29.56 in 10.0 mi South 13.8 mph 19.6 mph N/A   Clear
9:15 AM 75.2 °F - 60.8 °F 61% 29.56 in 10.0 mi South 15.0 mph - N/A   Clear
9:35 AM 77.0 °F - 59.0 °F 54% 29.57 in 10.0 mi South 17.3 mph 27.6 mph N/A   Clear
9:55 AM 78.8 °F - 57.2 °F 47% 29.57 in 10.0 mi SSW 23.0 mph 28.8 mph N/A   Clear
10:15 AM 80.6 °F 80.8 °F 57.2 °F 45% 29.57 in 10.0 mi SSW 20.7 mph 25.3 mph N/A   Clear
10:35 AM 82.4 °F 81.7 °F 55.4 °F 39% 29.55 in 10.0 mi SSW 20.7 mph 29.9 mph N/A   Clear
10:55 AM 84.2 °F 83.0 °F 55.4 °F 37% 29.54 in 10.0 mi SSW 25.3 mph 33.4 mph N/A   Clear
11:15 AM 84.2 °F 82.8 °F 53.6 °F 35% 29.54 in 10.0 mi South 33.4 mph 41.4 mph N/A   Clear
11:35 AM 86.0 °F 84.2 °F 53.6 °F 33% 29.55 in 10.0 mi South 26.5 mph 35.7 mph N/A   Clear
12:15 PM 89.6 °F - 51.8 °F 27% 29.54 in 10.0 mi South 24.2 mph 32.2 mph N/A   Clear
12:35 PM 91.4 °F - 50.0 °F 24% 29.54 in 10.0 mi South 21.9 mph 35.7 mph N/A   Clear
12:55 PM 91.4 °F - 51.8 °F 26% 29.53 in 10.0 mi South 26.5 mph 33.4 mph N/A   Clear
1:15 PM 91.4 °F - 51.8 °F 26% 29.53 in 10.0 mi South 24.2 mph 33.4 mph N/A   Clear
1:35 PM 91.4 °F - 51.8 °F 26% 29.52 in 10.0 mi South 24.2 mph 35.7 mph N/A   Clear
1:55 PM 91.4 °F 89.1 °F 53.6 °F 28% 29.52 in 10.0 mi South 27.6 mph 36.8 mph N/A   Clear
2:15 PM 91.4 °F 89.1 °F 53.6 °F 28% 29.51 in 10.0 mi South 20.7 mph 32.2 mph N/A   Clear
2:35 PM 91.4 °F 89.1 °F 53.6 °F 28% 29.51 in 10.0 mi South 21.9 mph 34.5 mph N/A   Clear
2:55 PM 91.4 °F - 51.8 °F 26% 29.50 in 10.0 mi South 24.2 mph 31.1 mph N/A   Clear
3:15 PM 91.4 °F - 51.8 °F 26% 29.49 in 10.0 mi South 19.6 mph 31.1 mph N/A   Clear
3:35 PM 87.8 °F 86.1 °F 55.4 °F 33% 29.47 in 10.0 mi South 18.4 mph 26.5 mph N/A Thunderstorm Thunderstorm
3:55 PM 84.2 °F 84.4 °F 60.8 °F 45% 29.47 in 10.0 mi South 26.5 mph 33.4 mph N/A Thunderstorm Thunderstorm
4:15 PM 82.4 °F 82.9 °F 60.8 °F 48% 29.46 in 10.0 mi SSE 25.3 mph 32.2 mph N/A Thunderstorm Thunderstorm
4:35 PM 82.4 °F 82.9 °F 60.8 °F 48% 29.47 in 10.0 mi SSE 23.0 mph 28.8 mph N/A Thunderstorm Thunderstorm
4:55 PM 75.2 °F - 62.6 °F 65% 29.49 in 9.0 mi South 18.4 mph - 0.02 in Thunderstorm Thunderstorm
5:15 PM 71.6 °F - 62.6 °F 73% 29.52 in 10.0 mi SSW 10.4 mph - 0.07 in Thunderstorm Thunderstorm
5:35 PM 73.4 °F - 60.8 °F 65% 29.51 in 10.0 mi WSW 8.1 mph - 0.07 in   Partly Cloudy
5:55 PM 68.0 °F - 60.8 °F 78% 29.54 in 10.0 mi WNW 9.2 mph - 0.07 in   Scattered Clouds
6:15 PM 64.4 °F - 55.4 °F 73% 29.56 in 10.0 mi NNW 19.6 mph - N/A   Mostly Cloudy
6:35 PM 60.8 °F - 53.6 °F 77% 29.58 in 10.0 mi NNW 25.3 mph 32.2 mph N/A   Mostly Cloudy
6:55 PM 59.0 °F - 51.8 °F 77% 29.58 in 10.0 mi NNW 24.2 mph 34.5 mph N/A Thunderstorm Scattered Clouds
7:15 PM 57.2 °F - 51.8 °F 82% 29.62 in 9.0 mi NNW 27.6 mph 33.4 mph 0.06 in   Mostly Cloudy
7:35 PM 55.4 °F - 51.8 °F 88% 29.60 in 10.0 mi NNW 25.3 mph 38.0 mph 0.12 in   Overcast
7:55 PM 53.6 °F - 51.8 °F 94% 29.61 in 10.0 mi North 31.1 mph 38.0 mph 0.12 in   Overcast
8:15 PM 53.6 °F - 50.0 °F 88% 29.62 in 10.0 mi North 27.6 mph 35.7 mph N/A   Overcast
8:35 PM 53.6 °F - 48.2 °F 82% 29.64 in 10.0 mi North 26.5 mph 40.3 mph N/A   Overcast
8:55 PM 53.6 °F - 46.4 °F 77% 29.65 in 10.0 mi North 26.5 mph 38.0 mph N/A   Overcast
9:15 PM 53.6 °F - 46.4 °F 77% 29.67 in 10.0 mi North 33.4 mph 38.0 mph N/A   Overcast
9:35 PM 51.8 °F - 46.4 °F 82% 29.69 in 10.0 mi North 27.6 mph 35.7 mph N/A   Overcast
9:55 PM 51.8 °F - 46.4 °F 82% 29.69 in 10.0 mi North 24.2 mph 38.0 mph N/A   Overcast
10:15 PM 51.8 °F - 46.4 °F 82% 29.68 in 10.0 mi North 31.1 mph 39.1 mph N/A   Overcast
10:35 PM 51.8 °F - 46.4 °F 82% 29.70 in 10.0 mi North 27.6 mph 36.8 mph N/A   Overcast
11:15 PM 51.8 °F - 46.4 °F 82% 29.72 in 10.0 mi North 24.2 mph 35.7 mph N/A   Overcast
11:35 PM 51.8 °F - 46.4 °F 82% 29.73 in 10.0 mi North 23.0 mph 32.2 mph N/A   Overcast
11:55 PM 51.8 °F - 46.4 °F 82% 29.74 in 10.0 mi North 25.3 mph 34.5 mph N/A   Overcast